Flag for Germany Weather past 2 weeks in Frechen, North Rhine-Westphalia, Germany

Now
63 °F

Mild.


Feels Like: 63 °F
Forecast: 50 / 61 °F
Wind: 1 mph from Northeast

Location: Noervenich

Current Time: May 24, 2015 at 1:59:32 PM

Latest Report: May 24, 2015 at 1:20 PM


Visibility: N/A

Pressure: 30.09 "Hg

Humidity: 59%

Dew point: 48 °F

Location of FrechenLocation

Historic Weather in Frechen — Graph

°F

Frechen temperature yesterday

Maximum temperature yesterday: 68 °F (at 2:20 PM)
Minimum temperature yesterday: 50 °F (at 4:20 AM)
Average temperature yesterday: 58 °F

Past Weeks' High & Low Weather Summary

 TemperatureHumidityPressure
High81 °F (May 11, 4:20 PM)100% (May 15, 1:20 AM)30.33 "Hg (May 15, 1:20 AM)
Low39 °F (May 21, 5:20 AM)30% (May 11, 4:20 PM)29.65 "Hg (May 18, 7:20 PM)
Average56 °F67%30.08 "Hg
* Reported May 9 12:20 PM — May 24 12:20 PM, Frechen, Weather by CustomWeather, © 2015

Note: Actual official high and low records may vary slightly from our data, if they occured in-between our weather recording intervals... More about our weather records

Advertising

Frechen weather history for previous 24 hours

 ConditionsComfort  
Time TempWeatherWind HumidityBarometerVisibility
12:20 PM
Sun, May 24
63 °FMild.1 mph59%30.09 "Hg5 mi
11:20 AM59 °FCool.1 mph68%30.12 "Hg6 mi
10:20 AM57 °FCool.1 mph72%30.12 "Hg6 mi
9:20 AM55 °FCool.1 mph72%30.12 "Hg6 mi
8:20 AM52 °FCool.2 mph82%30.12 "Hg5 mi
7:20 AM52 °FCool.2 mph82%30.12 "Hg5 mi
6:20 AM52 °FCool.3 mph77%30.12 "Hg5 mi
5:20 AM52 °FPartly cloudy.3 mph82%30.12 "HgN/A
4:20 AM52 °FPartly cloudy.2 mph82%30.12 "HgN/A
3:20 AM54 °FPassing clouds.3 mph82%30.12 "HgN/A
2:20 AM54 °FPassing clouds.1 mph82%30.12 "HgN/A
1:20 AM55 °FPassing clouds.3 mph77%30.15 "HgN/A
12:20 AM55 °FPartly cloudy.3 mph82%30.15 "HgN/A
11:20 PM
Sat, May 23
55 °FPassing clouds.5 mph82%30.15 "HgN/A
10:20 PM57 °FPartly sunny.6 mph77%30.15 "HgN/A
9:20 PM57 °FPartly sunny.5 mph77%30.15 "HgN/A
8:20 PM59 °FPartly sunny.7 mph72%30.12 "HgN/A
7:20 PM59 °FCool.9 mph77%30.12 "Hg6 mi
6:20 PM61 °FCool.10 mph77%30.12 "HgN/A
5:20 PM64 °FMild.8 mph64%30.12 "Hg6 mi
4:20 PM66 °FMild.8 mph56%30.12 "HgN/A
3:20 PM68 °FMild.7 mph46%30.12 "HgN/A
2:20 PM68 °FMild.3 mph43%30.12 "HgN/A
1:20 PM64 °FMild.5 mph56%30.15 "HgN/A
Weather by CustomWeather, © 2015

See weather overviewHow to use our weather pages